Voltar ao catálogo

INSAT 2R

ARABSAT 1C

AtivoComunicaçõesGEO
NORAD 21894·PAYLOAD·🇮🇳 India

Lançado Feb 26, 1992 de Guiana Space Centre

Loading…

TLE

AtualizadoSource: Space-Track

Época: Sep 13, 2026, 18:53 UTC

1 21894U 92010B   26256.78725175 -.00000097  00000-0  00000-0 0  9996
2 21894  14.4205  10.9837 0029272 275.3033  93.0587  0.98682846125129

Acompanhe INSAT 2R em tempo real com AllMySat

Download on the App Store